Tracking 29594 objects as of 20-Sep-2024
HD Live streaming from Space Station
objects crossing your sky now

MEASAT 3D

Track MEASAT 3D now!
MEASAT 3D is classified as:


NORAD ID: 52904
Int'l Code: 2022-067B
Perigee: 35,784.8 km
Apogee: 35,803.8 km
Inclination: 0.1 °
Period: 1,436.1 minutes
Semi major axis: 42165 km
RCS: Unknown
Launch date: June 22, 2022
Source: Malaysia (MALA)
Launch site: FRENCH GUIANA (FRGUI)
Your satellite tracking list
Your tracking list is empty




NASA's NSSDC Master Catalog

Two Line Element Set (TLE):
1 52904U 22067B   24261.96694418 -.00000251  00000-0  00000-0 0  9998
2 52904   0.0525 344.9385 0002261 253.8760 198.1940  1.00269803  8258
Source of the keplerian elements: AFSPC